owner,sensor,date,latitude,longitude,vertical_datum,sea_water_practical_salinity,qcFlag 
ENP,ioos.station.NOAA.NDBC:TRRF1:1,2016-06-01T00:00:00Z,25.2170,-80.6500,1.5,2.5,1111122 
ENP,ioos.station.NOAA.NDBC:TRRF1:1,2016-06-01T01:00:00Z,25.2170,-80.6500,1.5,2.5,1111122 
ENP,ioos.station.NOAA.NDBC:TRRF1:1,2016-06-01T04:00:00Z,25.2170,-80.6500,1.5,2.48,1111122 
ENP,ioos.station.NOAA.NDBC:TRRF1:1,2016-06-01T07:00:00Z,25.2170,-80.6500,1.5,2.44,1111122 
ENP,ioos.station.NOAA.NDBC:TRRF1:1,2016-06-01T08:00:00Z,25.2170,-80.6500,1.5,2.43,1111122 
ENP,ioos.station.NOAA.NDBC:TRRF1:1,2016-06-01T09:00:00Z,25.2170,-80.6500,1.5,2.42,1111122 
ENP,ioos.station.NOAA.NDBC:TRRF1:1,2016-06-01T10:00:00Z,25.2170,-80.6500,1.5,2.41,1111122 
ENP,ioos.station.NOAA.NDBC:TRRF1:1,2016-06-01T11:00:00Z,25.2170,-80.6500,1.5,2.4,1111122 
ENP,ioos.station.NOAA.NDBC:TRRF1:1,2016-06-01T12:00:00Z,25.2170,-80.6500,1.5,2.39,1111122 
ENP,ioos.station.NOAA.NDBC:TRRF1:1,2016-06-01T13:00:00Z,25.2170,-80.6500,1.5,2.38,1111122 
ENP,ioos.station.NOAA.NDBC:TRRF1:1,2016-06-01T14:00:00Z,25.2170,-80.6500,1.5,2.36,1111122 
ENP,ioos.station.NOAA.NDBC:TRRF1:1,2016-06-01T15:00:00Z,25.2170,-80.6500,1.5,2.34,1111122 
ENP,ioos.station.NOAA.NDBC:TRRF1:1,2016-06-01T16:00:00Z,25.2170,-80.6500,1.5,2.33,1111122 
ENP,ioos.station.NOAA.NDBC:TRRF1:1,2016-06-01T17:00:00Z,25.2170,-80.6500,1.5,2.34,1111122 
ENP,ioos.station.NOAA.NDBC:TRRF1:1,2016-06-01T18:00:00Z,25.2170,-80.6500,1.5,2.35,1111122 
ENP,ioos.station.NOAA.NDBC:TRRF1:1,2016-06-01T19:00:00Z,25.2170,-80.6500,1.5,2.36,1111122 
ENP,ioos.station.NOAA.NDBC:TRRF1:1,2016-06-01T20:00:00Z,25.2170,-80.6500,1.5,2.36,1111122 
ENP,ioos.station.NOAA.NDBC:TRRF1:1,2016-06-01T21:00:00Z,25.2170,-80.6500,1.5,2.37,1111122 
ENP,ioos.station.NOAA.NDBC:TRRF1:1,2016-06-01T22:00:00Z,25.2170,-80.6500,1.5,2.36,1111122 
ENP,ioos.station.NOAA.NDBC:TRRF1:1,2016-06-01T23:00:00Z,25.2170,-80.6500,1.5,2.36,1111122 
ENP,ioos.station.NOAA.NDBC:TRRF1:1,2016-06-02T00:00:00Z,25.2170,-80.6500,1.5,2.36,1111122 
ENP,ioos.station.NOAA.NDBC:TRRF1:1,2016-06-02T01:00:00Z,25.2170,-80.6500,1.5,2.36,1111122 
ENP,ioos.station.NOAA.NDBC:TRRF1:1,2016-06-02T04:00:00Z,25.2170,-80.6500,1.5,2.36,1111122 
ENP,ioos.station.NOAA.NDBC:TRRF1:1,2016-06-02T07:00:00Z,25.2170,-80.6500,1.5,2.3,1111122 
ENP,ioos.station.NOAA.NDBC:TRRF1:1,2016-06-02T08:00:00Z,25.2170,-80.6500,1.5,2.28,1111122 
ENP,ioos.station.NOAA.NDBC:TRRF1:1,2016-06-02T09:00:00Z,25.2170,-80.6500,1.5,2.26,1111122 
ENP,ioos.station.NOAA.NDBC:TRRF1:1,2016-06-02T11:00:00Z,25.2170,-80.6500,1.5,2.24,1111122 
ENP,ioos.station.NOAA.NDBC:TRRF1:1,2016-06-02T12:00:00Z,25.2170,-80.6500,1.5,2.22,1111122 
ENP,ioos.station.NOAA.NDBC:TRRF1:1,2016-06-02T13:00:00Z,25.2170,-80.6500,1.5,2.21,1111122 
ENP,ioos.station.NOAA.NDBC:TRRF1:1,2016-06-02T14:00:00Z,25.2170,-80.6500,1.5,2.19,1111122 
ENP,ioos.station.NOAA.NDBC:TRRF1:1,2016-06-02T15:00:00Z,25.2170,-80.6500,1.5,2.18,1111122 
ENP,ioos.station.NOAA.NDBC:TRRF1:1,2016-06-02T16:00:00Z,25.2170,-80.6500,1.5,2.18,1111122 
ENP,ioos.station.NOAA.NDBC:TRRF1:1,2016-06-02T17:00:00Z,25.2170,-80.6500,1.5,2.18,1111122 
ENP,ioos.station.NOAA.NDBC:TRRF1:1,2016-06-02T18:00:00Z,25.2170,-80.6500,1.5,2.19,1111122 
ENP,ioos.station.NOAA.NDBC:TRRF1:1,2016-06-02T19:00:00Z,25.2170,-80.6500,1.5,2.2,1111122 
ENP,ioos.station.NOAA.NDBC:TRRF1:1,2016-06-02T20:00:00Z,25.2170,-80.6500,1.5,2.2,1111122 
ENP,ioos.station.NOAA.NDBC:TRRF1:1,2016-06-02T21:00:00Z,25.2170,-80.6500,1.5,2.2,1111122 
ENP,ioos.station.NOAA.NDBC:TRRF1:1,2016-06-02T22:00:00Z,25.2170,-80.6500,1.5,2.2,1111122 
ENP,ioos.station.NOAA.NDBC:TRRF1:1,2016-06-02T23:00:00Z,25.2170,-80.6500,1.5,2.2,1111122 
ENP,ioos.station.NOAA.NDBC:TRRF1:1,2016-06-03T00:00:00Z,25.2170,-80.6500,1.5,2.2,1111122 
ENP,ioos.station.NOAA.NDBC:TRRF1:1,2016-06-03T01:00:00Z,25.2170,-80.6500,1.5,2.2,1111122 
ENP,ioos.station.NOAA.NDBC:TRRF1:1,2016-06-03T04:00:00Z,25.2170,-80.6500,1.5,2.19,1111122 
ENP,ioos.station.NOAA.NDBC:TRRF1:1,2016-06-03T05:00:00Z,25.2170,-80.6500,1.5,2.18,1111122 
ENP,ioos.station.NOAA.NDBC:TRRF1:1,2016-06-03T07:00:00Z,25.2170,-80.6500,1.5,2.1,1111122 
ENP,ioos.station.NOAA.NDBC:TRRF1:1,2016-06-03T08:00:00Z,25.2170,-80.6500,1.5,2.07,1111122 
ENP,ioos.station.NOAA.NDBC:TRRF1:1,2016-06-03T09:00:00Z,25.2170,-80.6500,1.5,2.04,1111122 
ENP,ioos.station.NOAA.NDBC:TRRF1:1,2016-06-03T10:00:00Z,25.2170,-80.6500,1.5,2.01,1111122 
ENP,ioos.station.NOAA.NDBC:TRRF1:1,2016-06-03T11:00:00Z,25.2170,-80.6500,1.5,1.98,1111122 
ENP,ioos.station.NOAA.NDBC:TRRF1:1,2016-06-03T12:00:00Z,25.2170,-80.6500,1.5,1.97,1111122 
ENP,ioos.station.NOAA.NDBC:TRRF1:1,2016-06-03T13:00:00Z,25.2170,-80.6500,1.5,1.96,1111122 
ENP,ioos.station.NOAA.NDBC:TRRF1:1,2016-06-03T14:00:00Z,25.2170,-80.6500,1.5,1.94,1111122 
ENP,ioos.station.NOAA.NDBC:TRRF1:1,2016-06-03T15:00:00Z,25.2170,-80.6500,1.5,1.93,1111122 
ENP,ioos.station.NOAA.NDBC:TRRF1:1,2016-06-03T16:00:00Z,25.2170,-80.6500,1.5,1.93,1111122 
ENP,ioos.station.NOAA.NDBC:TRRF1:1,2016-06-03T17:00:00Z,25.2170,-80.6500,1.5,1.93,1111122 
ENP,ioos.station.NOAA.NDBC:TRRF1:1,2016-06-03T18:00:00Z,25.2170,-80.6500,1.5,1.94,1111122 
ENP,ioos.station.NOAA.NDBC:TRRF1:1,2016-06-03T19:00:00Z,25.2170,-80.6500,1.5,1.95,1111122 
ENP,ioos.station.NOAA.NDBC:TRRF1:1,2016-06-03T20:00:00Z,25.2170,-80.6500,1.5,1.95,1111122 
ENP,ioos.station.NOAA.NDBC:TRRF1:1,2016-06-03T21:00:00Z,25.2170,-80.6500,1.5,1.95,1111122 
ENP,ioos.station.NOAA.NDBC:TRRF1:1,2016-06-03T22:00:00Z,25.2170,-80.6500,1.5,1.95,1111122 
ENP,ioos.station.NOAA.NDBC:TRRF1:1,2016-06-03T23:00:00Z,25.2170,-80.6500,1.5,1.95,1111122 
ENP,ioos.station.NOAA.NDBC:TRRF1:1,2016-06-04T00:00:00Z,25.2170,-80.6500,1.5,1.95,1111122 
ENP,ioos.station.NOAA.NDBC:TRRF1:1,2016-06-04T01:00:00Z,25.2170,-80.6500,1.5,1.94,1111122 
ENP,ioos.station.NOAA.NDBC:TRRF1:1,2016-06-04T04:00:00Z,25.2170,-80.6500,1.5,1.94,1111122 
ENP,ioos.station.NOAA.NDBC:TRRF1:1,2016-06-04T07:00:00Z,25.2170,-80.6500,1.5,1.92,1111122 
ENP,ioos.station.NOAA.NDBC:TRRF1:1,2016-06-04T08:00:00Z,25.2170,-80.6500,1.5,1.9,1111122 
ENP,ioos.station.NOAA.NDBC:TRRF1:1,2016-06-04T09:00:00Z,25.2170,-80.6500,1.5,1.88,1111122 
ENP,ioos.station.NOAA.NDBC:TRRF1:1,2016-06-04T10:00:00Z,25.2170,-80.6500,1.5,1.86,1111122 
ENP,ioos.station.NOAA.NDBC:TRRF1:1,2016-06-04T11:00:00Z,25.2170,-80.6500,1.5,1.84,1111122 
ENP,ioos.station.NOAA.NDBC:TRRF1:1,2016-06-04T12:00:00Z,25.2170,-80.6500,1.5,1.83,1111122 
ENP,ioos.station.NOAA.NDBC:TRRF1:1,2016-06-04T13:00:00Z,25.2170,-80.6500,1.5,1.81,1111122 
ENP,ioos.station.NOAA.NDBC:TRRF1:1,2016-06-04T14:00:00Z,25.2170,-80.6500,1.5,1.79,1111122 
ENP,ioos.station.NOAA.NDBC:TRRF1:1,2016-06-04T15:00:00Z,25.2170,-80.6500,1.5,1.78,1111122 
ENP,ioos.station.NOAA.NDBC:TRRF1:1,2016-06-04T16:00:00Z,25.2170,-80.6500,1.5,1.77,1111122 
ENP,ioos.station.NOAA.NDBC:TRRF1:1,2016-06-04T17:00:00Z,25.2170,-80.6500,1.5,1.77,1111122 
ENP,ioos.station.NOAA.NDBC:TRRF1:1,2016-06-04T18:00:00Z,25.2170,-80.6500,1.5,1.78,1111122 
ENP,ioos.station.NOAA.NDBC:TRRF1:1,2016-06-04T19:00:00Z,25.2170,-80.6500,1.5,1.78,1111122 
ENP,ioos.station.NOAA.NDBC:TRRF1:1,2016-06-04T20:00:00Z,25.2170,-80.6500,1.5,1.78,1111122 
ENP,ioos.station.NOAA.NDBC:TRRF1:1,2016-06-04T21:00:00Z,25.2170,-80.6500,1.5,1.77,1111122 
ENP,ioos.station.NOAA.NDBC:TRRF1:1,2016-06-04T22:00:00Z,25.2170,-80.6500,1.5,1.77,1111122 
ENP,ioos.station.NOAA.NDBC:TRRF1:1,2016-06-04T23:00:00Z,25.2170,-80.6500,1.5,1.77,1111122 
ENP,ioos.station.NOAA.NDBC:TRRF1:1,2016-06-05T00:00:00Z,25.2170,-80.6500,1.5,1.77,1111122 
ENP,ioos.station.NOAA.NDBC:TRRF1:1,2016-06-05T01:00:00Z,25.2170,-80.6500,1.5,1.77,1111122 
ENP,ioos.station.NOAA.NDBC:TRRF1:1,2016-06-05T04:00:00Z,25.2170,-80.6500,1.5,1.76,1111122 
ENP,ioos.station.NOAA.NDBC:TRRF1:1,2016-06-05T07:00:00Z,25.2170,-80.6500,1.5,1.74,1111122 
ENP,ioos.station.NOAA.NDBC:TRRF1:1,2016-06-05T08:00:00Z,25.2170,-80.6500,1.5,1.73,1111122 
ENP,ioos.station.NOAA.NDBC:TRRF1:1,2016-06-05T09:00:00Z,25.2170,-80.6500,1.5,1.71,1111122 
ENP,ioos.station.NOAA.NDBC:TRRF1:1,2016-06-05T11:00:00Z,25.2170,-80.6500,1.5,1.69,1111122 
ENP,ioos.station.NOAA.NDBC:TRRF1:1,2016-06-05T12:00:00Z,25.2170,-80.6500,1.5,1.68,1111122 
ENP,ioos.station.NOAA.NDBC:TRRF1:1,2016-06-05T13:00:00Z,25.2170,-80.6500,1.5,1.67,1111122 
ENP,ioos.station.NOAA.NDBC:TRRF1:1,2016-06-05T14:00:00Z,25.2170,-80.6500,1.5,1.65,1111122 
ENP,ioos.station.NOAA.NDBC:TRRF1:1,2016-06-05T15:00:00Z,25.2170,-80.6500,1.5,1.64,1111122 
ENP,ioos.station.NOAA.NDBC:TRRF1:1,2016-06-05T16:00:00Z,25.2170,-80.6500,1.5,1.63,1111122 
ENP,ioos.station.NOAA.NDBC:TRRF1:1,2016-06-05T17:00:00Z,25.2170,-80.6500,1.5,1.63,1111122 
ENP,ioos.station.NOAA.NDBC:TRRF1:1,2016-06-05T18:00:00Z,25.2170,-80.6500,1.5,1.63,1111122 
ENP,ioos.station.NOAA.NDBC:TRRF1:1,2016-06-05T19:00:00Z,25.2170,-80.6500,1.5,1.63,1111122 
ENP,ioos.station.NOAA.NDBC:TRRF1:1,2016-06-05T20:00:00Z,25.2170,-80.6500,1.5,1.62,1111122 
ENP,ioos.station.NOAA.NDBC:TRRF1:1,2016-06-05T21:00:00Z,25.2170,-80.6500,1.5,1.62,1111122 
ENP,ioos.station.NOAA.NDBC:TRRF1:1,2016-06-05T22:00:00Z,25.2170,-80.6500,1.5,1.62,1111122 
ENP,ioos.station.NOAA.NDBC:TRRF1:1,2016-06-05T23:00:00Z,25.2170,-80.6500,1.5,1.62,1111122 
ENP,ioos.station.NOAA.NDBC:TRRF1:1,2016-06-06T00:00:00Z,25.2170,-80.6500,1.5,1.62,1111122 
ENP,ioos.station.NOAA.NDBC:TRRF1:1,2016-06-06T01:00:00Z,25.2170,-80.6500,1.5,1.62,1111122 
ENP,ioos.station.NOAA.NDBC:TRRF1:1,2016-06-06T02:00:00Z,25.2170,-80.6500,1.5,1.62,1111122 
ENP,ioos.station.NOAA.NDBC:TRRF1:1,2016-06-06T04:00:00Z,25.2170,-80.6500,1.5,1.62,1111122 
ENP,ioos.station.NOAA.NDBC:TRRF1:1,2016-06-06T05:00:00Z,25.2170,-80.6500,1.5,1.62,1111122 
ENP,ioos.station.NOAA.NDBC:TRRF1:1,2016-06-06T07:00:00Z,25.2170,-80.6500,1.5,1.61,1111122 
ENP,ioos.station.NOAA.NDBC:TRRF1:1,2016-06-06T08:00:00Z,25.2170,-80.6500,1.5,1.61,1111122 
ENP,ioos.station.NOAA.NDBC:TRRF1:1,2016-06-06T09:00:00Z,25.2170,-80.6500,1.5,1.61,1111122 
ENP,ioos.station.NOAA.NDBC:TRRF1:1,2016-06-06T10:00:00Z,25.2170,-80.6500,1.5,1.62,1111122 
ENP,ioos.station.NOAA.NDBC:TRRF1:1,2016-06-06T11:00:00Z,25.2170,-80.6500,1.5,1.62,1111122 
ENP,ioos.station.NOAA.NDBC:TRRF1:1,2016-06-06T12:00:00Z,25.2170,-80.6500,1.5,1.6,1111122 
ENP,ioos.station.NOAA.NDBC:TRRF1:1,2016-06-06T13:00:00Z,25.2170,-80.6500,1.5,1.56,1111122 
ENP,ioos.station.NOAA.NDBC:TRRF1:1,2016-06-06T14:00:00Z,25.2170,-80.6500,1.5,1.54,1111122 
ENP,ioos.station.NOAA.NDBC:TRRF1:1,2016-06-06T15:00:00Z,25.2170,-80.6500,1.5,1.53,1111122 
ENP,ioos.station.NOAA.NDBC:TRRF1:1,2016-06-06T16:00:00Z,25.2170,-80.6500,1.5,1.53,1111122 
ENP,ioos.station.NOAA.NDBC:TRRF1:1,2016-06-06T17:00:00Z,25.2170,-80.6500,1.5,1.53,1111122 
ENP,ioos.station.NOAA.NDBC:TRRF1:1,2016-06-06T18:00:00Z,25.2170,-80.6500,1.5,1.53,1111122 
ENP,ioos.station.NOAA.NDBC:TRRF1:1,2016-06-06T19:00:00Z,25.2170,-80.6500,1.5,1.54,1111122 
ENP,ioos.station.NOAA.NDBC:TRRF1:1,2016-06-06T20:00:00Z,25.2170,-80.6500,1.5,1.54,1111122 
ENP,ioos.station.NOAA.NDBC:TRRF1:1,2016-06-06T22:00:00Z,25.2170,-80.6500,1.5,1.54,1111122 
ENP,ioos.station.NOAA.NDBC:TRRF1:1,2016-06-06T23:00:00Z,25.2170,-80.6500,1.5,1.54,1111122 
ENP,ioos.station.NOAA.NDBC:TRRF1:1,2016-06-07T00:00:00Z,25.2170,-80.6500,1.5,1.55,1111122 
ENP,ioos.station.NOAA.NDBC:TRRF1:1,2016-06-07T01:00:00Z,25.2170,-80.6500,1.5,1.56,1111122 
ENP,ioos.station.NOAA.NDBC:TRRF1:1,2016-06-07T04:00:00Z,25.2170,-80.6500,1.5,1.59,1111122 
ENP,ioos.station.NOAA.NDBC:TRRF1:1,2016-06-07T07:00:00Z,25.2170,-80.6500,1.5,1.59,1111122 
ENP,ioos.station.NOAA.NDBC:TRRF1:1,2016-06-07T08:00:00Z,25.2170,-80.6500,1.5,1.59,1111122 
ENP,ioos.station.NOAA.NDBC:TRRF1:1,2016-06-07T09:00:00Z,25.2170,-80.6500,1.5,1.59,1111122 
ENP,ioos.station.NOAA.NDBC:TRRF1:1,2016-06-07T10:00:00Z,25.2170,-80.6500,1.5,1.59,1111122 
ENP,ioos.station.NOAA.NDBC:TRRF1:1,2016-06-07T11:00:00Z,25.2170,-80.6500,1.5,1.59,1111122 
ENP,ioos.station.NOAA.NDBC:TRRF1:1,2016-06-07T12:00:00Z,25.2170,-80.6500,1.5,1.59,1111122 
ENP,ioos.station.NOAA.NDBC:TRRF1:1,2016-06-07T13:00:00Z,25.2170,-80.6500,1.5,1.59,1111122 
ENP,ioos.station.NOAA.NDBC:TRRF1:1,2016-06-07T14:00:00Z,25.2170,-80.6500,1.5,1.59,1111122 
ENP,ioos.station.NOAA.NDBC:TRRF1:1,2016-06-07T15:00:00Z,25.2170,-80.6500,1.5,1.6,1111122 
ENP,ioos.station.NOAA.NDBC:TRRF1:1,2016-06-07T16:00:00Z,25.2170,-80.6500,1.5,1.61,1111122 
ENP,ioos.station.NOAA.NDBC:TRRF1:1,2016-06-07T17:00:00Z,25.2170,-80.6500,1.5,1.62,1111122 
ENP,ioos.station.NOAA.NDBC:TRRF1:1,2016-06-07T18:00:00Z,25.2170,-80.6500,1.5,1.7,1111122 
ENP,ioos.station.NOAA.NDBC:TRRF1:1,2016-06-07T19:00:00Z,25.2170,-80.6500,1.5,1.76,1111122 
ENP,ioos.station.NOAA.NDBC:TRRF1:1,2016-06-07T20:00:00Z,25.2170,-80.6500,1.5,1.77,1111122 
ENP,ioos.station.NOAA.NDBC:TRRF1:1,2016-06-07T21:00:00Z,25.2170,-80.6500,1.5,1.82,1111122 
ENP,ioos.station.NOAA.NDBC:TRRF1:1,2016-06-07T22:00:00Z,25.2170,-80.6500,1.5,1.86,1111122 
ENP,ioos.station.NOAA.NDBC:TRRF1:1,2016-06-07T23:00:00Z,25.2170,-80.6500,1.5,1.9,1111122 
ENP,ioos.station.NOAA.NDBC:TRRF1:1,2016-06-08T00:00:00Z,25.2170,-80.6500,1.5,1.94,1111122 
ENP,ioos.station.NOAA.NDBC:TRRF1:1,2016-06-08T01:00:00Z,25.2170,-80.6500,1.5,2.12,1111122 
ENP,ioos.station.NOAA.NDBC:TRRF1:1,2016-06-08T04:00:00Z,25.2170,-80.6500,1.5,3.14,1111122 
ENP,ioos.station.NOAA.NDBC:TRRF1:1,2016-06-08T07:00:00Z,25.2170,-80.6500,1.5,5.02,1111122 
ENP,ioos.station.NOAA.NDBC:TRRF1:1,2016-06-08T08:00:00Z,25.2170,-80.6500,1.5,6.13,1111122 
ENP,ioos.station.NOAA.NDBC:TRRF1:1,2016-06-08T09:00:00Z,25.2170,-80.6500,1.5,6.17,1111122 
ENP,ioos.station.NOAA.NDBC:TRRF1:1,2016-06-08T10:00:00Z,25.2170,-80.6500,1.5,6.86,1111122 
ENP,ioos.station.NOAA.NDBC:TRRF1:1,2016-06-08T11:00:00Z,25.2170,-80.6500,1.5,8.17,1111122 
ENP,ioos.station.NOAA.NDBC:TRRF1:1,2016-06-08T12:00:00Z,25.2170,-80.6500,1.5,8.41,1111122 
ENP,ioos.station.NOAA.NDBC:TRRF1:1,2016-06-08T13:00:00Z,25.2170,-80.6500,1.5,7.95,1111122 
ENP,ioos.station.NOAA.NDBC:TRRF1:1,2016-06-08T14:00:00Z,25.2170,-80.6500,1.5,6.95,1111122 
ENP,ioos.station.NOAA.NDBC:TRRF1:1,2016-06-08T15:00:00Z,25.2170,-80.6500,1.5,7.89,1111122 
ENP,ioos.station.NOAA.NDBC:TRRF1:1,2016-06-08T16:00:00Z,25.2170,-80.6500,1.5,6.66,1111122 
ENP,ioos.station.NOAA.NDBC:TRRF1:1,2016-06-08T17:00:00Z,25.2170,-80.6500,1.5,5.82,1111122 
ENP,ioos.station.NOAA.NDBC:TRRF1:1,2016-06-08T18:00:00Z,25.2170,-80.6500,1.5,6.03,1111122 
ENP,ioos.station.NOAA.NDBC:TRRF1:1,2016-06-08T19:00:00Z,25.2170,-80.6500,1.5,6.98,1111122 
ENP,ioos.station.NOAA.NDBC:TRRF1:1,2016-06-08T20:00:00Z,25.2170,-80.6500,1.5,9.08,1111122 
ENP,ioos.station.NOAA.NDBC:TRRF1:1,2016-06-08T21:00:00Z,25.2170,-80.6500,1.5,9.89,1111122 
ENP,ioos.station.NOAA.NDBC:TRRF1:1,2016-06-08T22:00:00Z,25.2170,-80.6500,1.5,10.2,1111122 
ENP,ioos.station.NOAA.NDBC:TRRF1:1,2016-06-08T23:00:00Z,25.2170,-80.6500,1.5,10.25,1111122 
ENP,ioos.station.NOAA.NDBC:TRRF1:1,2016-06-09T00:00:00Z,25.2170,-80.6500,1.5,10.16,1111122 
ENP,ioos.station.NOAA.NDBC:TRRF1:1,2016-06-09T01:00:00Z,25.2170,-80.6500,1.5,10.88,1111122 
ENP,ioos.station.NOAA.NDBC:TRRF1:1,2016-06-09T04:00:00Z,25.2170,-80.6500,1.5,12.34,1111122 
ENP,ioos.station.NOAA.NDBC:TRRF1:1,2016-06-09T07:00:00Z,25.2170,-80.6500,1.5,12.83,1111122 
ENP,ioos.station.NOAA.NDBC:TRRF1:1,2016-06-09T08:00:00Z,25.2170,-80.6500,1.5,12.97,1111122 
ENP,ioos.station.NOAA.NDBC:TRRF1:1,2016-06-09T09:00:00Z,25.2170,-80.6500,1.5,13.16,1111122 
ENP,ioos.station.NOAA.NDBC:TRRF1:1,2016-06-09T10:00:00Z,25.2170,-80.6500,1.5,13.3,1111122 
ENP,ioos.station.NOAA.NDBC:TRRF1:1,2016-06-09T11:00:00Z,25.2170,-80.6500,1.5,13.41,1111122 
ENP,ioos.station.NOAA.NDBC:TRRF1:1,2016-06-09T12:00:00Z,25.2170,-80.6500,1.5,13.52,1111122 
ENP,ioos.station.NOAA.NDBC:TRRF1:1,2016-06-09T13:00:00Z,25.2170,-80.6500,1.5,13.63,1111122 
ENP,ioos.station.NOAA.NDBC:TRRF1:1,2016-06-09T14:00:00Z,25.2170,-80.6500,1.5,13.72,1111122 
ENP,ioos.station.NOAA.NDBC:TRRF1:1,2016-06-09T15:00:00Z,25.2170,-80.6500,1.5,13.75,1111122 
ENP,ioos.station.NOAA.NDBC:TRRF1:1,2016-06-09T16:00:00Z,25.2170,-80.6500,1.5,13.75,1111122 
ENP,ioos.station.NOAA.NDBC:TRRF1:1,2016-06-09T17:00:00Z,25.2170,-80.6500,1.5,13.8,1111122 
ENP,ioos.station.NOAA.NDBC:TRRF1:1,2016-06-09T18:00:00Z,25.2170,-80.6500,1.5,13.82,1111122 
ENP,ioos.station.NOAA.NDBC:TRRF1:1,2016-06-09T19:00:00Z,25.2170,-80.6500,1.5,13.71,1111122 
ENP,ioos.station.NOAA.NDBC:TRRF1:1,2016-06-09T20:00:00Z,25.2170,-80.6500,1.5,13.69,1111122 
ENP,ioos.station.NOAA.NDBC:TRRF1:1,2016-06-09T21:00:00Z,25.2170,-80.6500,1.5,13.68,1111122 
ENP,ioos.station.NOAA.NDBC:TRRF1:1,2016-06-09T22:00:00Z,25.2170,-80.6500,1.5,13.81,1111122 
ENP,ioos.station.NOAA.NDBC:TRRF1:1,2016-06-09T23:00:00Z,25.2170,-80.6500,1.5,13.92,1111122 
ENP,ioos.station.NOAA.NDBC:TRRF1:1,2016-06-10T00:00:00Z,25.2170,-80.6500,1.5,14.0,1111122 
ENP,ioos.station.NOAA.NDBC:TRRF1:1,2016-06-10T01:00:00Z,25.2170,-80.6500,1.5,14.01,1111122 
ENP,ioos.station.NOAA.NDBC:TRRF1:1,2016-06-10T04:00:00Z,25.2170,-80.6500,1.5,13.68,1111122 
ENP,ioos.station.NOAA.NDBC:TRRF1:1,2016-06-10T07:00:00Z,25.2170,-80.6500,1.5,13.29,1111122 
ENP,ioos.station.NOAA.NDBC:TRRF1:1,2016-06-10T08:00:00Z,25.2170,-80.6500,1.5,12.56,1111122 
ENP,ioos.station.NOAA.NDBC:TRRF1:1,2016-06-10T09:00:00Z,25.2170,-80.6500,1.5,12.04,1111122 
ENP,ioos.station.NOAA.NDBC:TRRF1:1,2016-06-10T10:00:00Z,25.2170,-80.6500,1.5,11.69,1111122 
ENP,ioos.station.NOAA.NDBC:TRRF1:1,2016-06-10T11:00:00Z,25.2170,-80.6500,1.5,11.57,1111122 
ENP,ioos.station.NOAA.NDBC:TRRF1:1,2016-06-10T12:00:00Z,25.2170,-80.6500,1.5,11.35,1111122 
ENP,ioos.station.NOAA.NDBC:TRRF1:1,2016-06-10T13:00:00Z,25.2170,-80.6500,1.5,11.15,1111122 
ENP,ioos.station.NOAA.NDBC:TRRF1:1,2016-06-10T14:00:00Z,25.2170,-80.6500,1.5,10.63,1111122 
ENP,ioos.station.NOAA.NDBC:TRRF1:1,2016-06-10T15:00:00Z,25.2170,-80.6500,1.5,10.4,1111122 
ENP,ioos.station.NOAA.NDBC:TRRF1:1,2016-06-10T16:00:00Z,25.2170,-80.6500,1.5,9.88,1111122 
ENP,ioos.station.NOAA.NDBC:TRRF1:1,2016-06-10T17:00:00Z,25.2170,-80.6500,1.5,8.75,1111122 
ENP,ioos.station.NOAA.NDBC:TRRF1:1,2016-06-10T18:00:00Z,25.2170,-80.6500,1.5,8.18,1111122 
ENP,ioos.station.NOAA.NDBC:TRRF1:1,2016-06-10T19:00:00Z,25.2170,-80.6500,1.5,8.69,1111122 
ENP,ioos.station.NOAA.NDBC:TRRF1:1,2016-06-10T20:00:00Z,25.2170,-80.6500,1.5,8.34,1111122 
ENP,ioos.station.NOAA.NDBC:TRRF1:1,2016-06-10T21:00:00Z,25.2170,-80.6500,1.5,7.18,1111122 
ENP,ioos.station.NOAA.NDBC:TRRF1:1,2016-06-10T22:00:00Z,25.2170,-80.6500,1.5,7.09,1111122 
ENP,ioos.station.NOAA.NDBC:TRRF1:1,2016-06-10T23:00:00Z,25.2170,-80.6500,1.5,6.42,1111122 
ENP,ioos.station.NOAA.NDBC:TRRF1:1,2016-06-11T00:00:00Z,25.2170,-80.6500,1.5,5.72,1111122 
ENP,ioos.station.NOAA.NDBC:TRRF1:1,2016-06-11T01:00:00Z,25.2170,-80.6500,1.5,5.19,1111122 
ENP,ioos.station.NOAA.NDBC:TRRF1:1,2016-06-11T04:00:00Z,25.2170,-80.6500,1.5,5.42,1111122 
ENP,ioos.station.NOAA.NDBC:TRRF1:1,2016-06-11T07:00:00Z,25.2170,-80.6500,1.5,4.54,1111122 
ENP,ioos.station.NOAA.NDBC:TRRF1:1,2016-06-11T08:00:00Z,25.2170,-80.6500,1.5,4.54,1111122 
ENP,ioos.station.NOAA.NDBC:TRRF1:1,2016-06-11T09:00:00Z,25.2170,-80.6500,1.5,4.44,1111122 
ENP,ioos.station.NOAA.NDBC:TRRF1:1,2016-06-11T10:00:00Z,25.2170,-80.6500,1.5,4.01,1111122 
ENP,ioos.station.NOAA.NDBC:TRRF1:1,2016-06-11T11:00:00Z,25.2170,-80.6500,1.5,3.62,1111122 
ENP,ioos.station.NOAA.NDBC:TRRF1:1,2016-06-11T12:00:00Z,25.2170,-80.6500,1.5,3.31,1111122 
ENP,ioos.station.NOAA.NDBC:TRRF1:1,2016-06-11T13:00:00Z,25.2170,-80.6500,1.5,3.09,1111122 
ENP,ioos.station.NOAA.NDBC:TRRF1:1,2016-06-11T14:00:00Z,25.2170,-80.6500,1.5,2.91,1111122 
ENP,ioos.station.NOAA.NDBC:TRRF1:1,2016-06-11T15:00:00Z,25.2170,-80.6500,1.5,2.77,1111122 
ENP,ioos.station.NOAA.NDBC:TRRF1:1,2016-06-11T16:00:00Z,25.2170,-80.6500,1.5,2.63,1111122 
ENP,ioos.station.NOAA.NDBC:TRRF1:1,2016-06-11T17:00:00Z,25.2170,-80.6500,1.5,2.53,1111122 
ENP,ioos.station.NOAA.NDBC:TRRF1:1,2016-06-11T18:00:00Z,25.2170,-80.6500,1.5,2.44,1111122 
ENP,ioos.station.NOAA.NDBC:TRRF1:1,2016-06-11T19:00:00Z,25.2170,-80.6500,1.5,2.37,1111122 
ENP,ioos.station.NOAA.NDBC:TRRF1:1,2016-06-11T20:00:00Z,25.2170,-80.6500,1.5,2.31,1111122 
ENP,ioos.station.NOAA.NDBC:TRRF1:1,2016-06-11T21:00:00Z,25.2170,-80.6500,1.5,2.2,1111122 
ENP,ioos.station.NOAA.NDBC:TRRF1:1,2016-06-11T22:00:00Z,25.2170,-80.6500,1.5,2.13,1111122 
ENP,ioos.station.NOAA.NDBC:TRRF1:1,2016-06-11T23:00:00Z,25.2170,-80.6500,1.5,2.08,1111122 
ENP,ioos.station.NOAA.NDBC:TRRF1:1,2016-06-12T00:00:00Z,25.2170,-80.6500,1.5,2.04,1111122 
ENP,ioos.station.NOAA.NDBC:TRRF1:1,2016-06-12T01:00:00Z,25.2170,-80.6500,1.5,2.0,1111122 
ENP,ioos.station.NOAA.NDBC:TRRF1:1,2016-06-12T04:00:00Z,25.2170,-80.6500,1.5,1.93,1111122 
ENP,ioos.station.NOAA.NDBC:TRRF1:1,2016-06-12T07:00:00Z,25.2170,-80.6500,1.5,1.81,1111122 
ENP,ioos.station.NOAA.NDBC:TRRF1:1,2016-06-12T08:00:00Z,25.2170,-80.6500,1.5,1.73,1111122 
ENP,ioos.station.NOAA.NDBC:TRRF1:1,2016-06-12T09:00:00Z,25.2170,-80.6500,1.5,1.67,1111122 
ENP,ioos.station.NOAA.NDBC:TRRF1:1,2016-06-12T10:00:00Z,25.2170,-80.6500,1.5,1.63,1111122 
ENP,ioos.station.NOAA.NDBC:TRRF1:1,2016-06-12T12:00:00Z,25.2170,-80.6500,1.5,1.56,1111122 
ENP,ioos.station.NOAA.NDBC:TRRF1:1,2016-06-12T13:00:00Z,25.2170,-80.6500,1.5,1.53,1111122 
ENP,ioos.station.NOAA.NDBC:TRRF1:1,2016-06-12T14:00:00Z,25.2170,-80.6500,1.5,1.5,1111122 
ENP,ioos.station.NOAA.NDBC:TRRF1:1,2016-06-12T15:00:00Z,25.2170,-80.6500,1.5,1.48,1111122 
ENP,ioos.station.NOAA.NDBC:TRRF1:1,2016-06-12T16:00:00Z,25.2170,-80.6500,1.5,1.47,1111122 
ENP,ioos.station.NOAA.NDBC:TRRF1:1,2016-06-12T17:00:00Z,25.2170,-80.6500,1.5,1.46,1111122 
ENP,ioos.station.NOAA.NDBC:TRRF1:1,2016-06-12T18:00:00Z,25.2170,-80.6500,1.5,1.45,1111122 
ENP,ioos.station.NOAA.NDBC:TRRF1:1,2016-06-12T19:00:00Z,25.2170,-80.6500,1.5,1.44,1111122 
ENP,ioos.station.NOAA.NDBC:TRRF1:1,2016-06-12T20:00:00Z,25.2170,-80.6500,1.5,1.43,1111122 
ENP,ioos.station.NOAA.NDBC:TRRF1:1,2016-06-12T21:00:00Z,25.2170,-80.6500,1.5,1.43,1111122 
ENP,ioos.station.NOAA.NDBC:TRRF1:1,2016-06-12T22:00:00Z,25.2170,-80.6500,1.5,1.42,1111122 
ENP,ioos.station.NOAA.NDBC:TRRF1:1,2016-06-12T23:00:00Z,25.2170,-80.6500,1.5,1.42,1111122 
ENP,ioos.station.NOAA.NDBC:TRRF1:1,2016-06-13T00:00:00Z,25.2170,-80.6500,1.5,1.42,1111122 
ENP,ioos.station.NOAA.NDBC:TRRF1:1,2016-06-13T01:00:00Z,25.2170,-80.6500,1.5,1.42,1111122 
ENP,ioos.station.NOAA.NDBC:TRRF1:1,2016-06-13T02:00:00Z,25.2170,-80.6500,1.5,1.41,1111122 
ENP,ioos.station.NOAA.NDBC:TRRF1:1,2016-06-13T04:00:00Z,25.2170,-80.6500,1.5,1.39,1111122 
ENP,ioos.station.NOAA.NDBC:TRRF1:1,2016-06-13T05:00:00Z,25.2170,-80.6500,1.5,1.37,1111122 
ENP,ioos.station.NOAA.NDBC:TRRF1:1,2016-06-13T07:00:00Z,25.2170,-80.6500,1.5,1.34,1111122 
ENP,ioos.station.NOAA.NDBC:TRRF1:1,2016-06-13T08:00:00Z,25.2170,-80.6500,1.5,1.32,1111122 
ENP,ioos.station.NOAA.NDBC:TRRF1:1,2016-06-13T09:00:00Z,25.2170,-80.6500,1.5,1.31,1111122 
ENP,ioos.station.NOAA.NDBC:TRRF1:1,2016-06-13T11:00:00Z,25.2170,-80.6500,1.5,1.28,1111122 
ENP,ioos.station.NOAA.NDBC:TRRF1:1,2016-06-13T12:00:00Z,25.2170,-80.6500,1.5,1.26,1111122 
ENP,ioos.station.NOAA.NDBC:TRRF1:1,2016-06-13T13:00:00Z,25.2170,-80.6500,1.5,1.24,1111122 
ENP,ioos.station.NOAA.NDBC:TRRF1:1,2016-06-13T14:00:00Z,25.2170,-80.6500,1.5,1.22,1111122 
ENP,ioos.station.NOAA.NDBC:TRRF1:1,2016-06-13T15:00:00Z,25.2170,-80.6500,1.5,1.2,1111122 
ENP,ioos.station.NOAA.NDBC:TRRF1:1,2016-06-13T16:00:00Z,25.2170,-80.6500,1.5,1.18,1111122 
ENP,ioos.station.NOAA.NDBC:TRRF1:1,2016-06-13T17:00:00Z,25.2170,-80.6500,1.5,1.16,1111122 
ENP,ioos.station.NOAA.NDBC:TRRF1:1,2016-06-13T18:00:00Z,25.2170,-80.6500,1.5,1.15,1111122 
ENP,ioos.station.NOAA.NDBC:TRRF1:1,2016-06-13T19:00:00Z,25.2170,-80.6500,1.5,1.14,1111122 
ENP,ioos.station.NOAA.NDBC:TRRF1:1,2016-06-13T20:00:00Z,25.2170,-80.6500,1.5,1.14,1111122 
ENP,ioos.station.NOAA.NDBC:TRRF1:1,2016-06-13T21:00:00Z,25.2170,-80.6500,1.5,1.13,1111122 
ENP,ioos.station.NOAA.NDBC:TRRF1:1,2016-06-13T22:00:00Z,25.2170,-80.6500,1.5,1.13,1111122 
ENP,ioos.station.NOAA.NDBC:TRRF1:1,2016-06-13T23:00:00Z,25.2170,-80.6500,1.5,1.13,1111122 
ENP,ioos.station.NOAA.NDBC:TRRF1:1,2016-06-14T00:00:00Z,25.2170,-80.6500,1.5,1.13,1111122 
ENP,ioos.station.NOAA.NDBC:TRRF1:1,2016-06-14T01:00:00Z,25.2170,-80.6500,1.5,1.12,1111122 